This is the latest recevied weather packets stored in our database for station/object S56WDN-10. If no packets are shown the sender has not sent any weather packets the latest 10 day(s).
| Time | Temp. | Humidity | Pressure | Rain* | Wind** | Luminosity | Snow |
|---|---|---|---|---|---|---|---|
| 1778175411 | 18.33° C | 61% | 1011.9 hPa | 0 mm | - | - | - |
| 1778175111 | 18.33° C | 61% | 1011.9 hPa | 0 mm | - | - | - |
| 1778174811 | 18.33° C | 62% | 1011.8 hPa | 0 mm | - | - | - |
| 1778174511 | 18.33° C | 64% | 1011.8 hPa | 0 mm | - | - | - |
| 1778174211 | 18.33° C | 64% | 1011.9 hPa | 0 mm | - | - | - |
| 1778173911 | 18.89° C | 64% | 1011.8 hPa | 0 mm | - | - | - |
| 1778173611 | 18.89° C | 64% | 1011.8 hPa | 0 mm | - | - | - |
| 1778173311 | 18.89° C | 63% | 1011.8 hPa | 0 mm | - | - | - |
| 1778173011 | 18.89° C | 63% | 1011.8 hPa | 0 mm | - | - | - |
| 1778172711 | 19.44° C | 63% | 1011.8 hPa | 0 mm | - | - | - |
| 1778172411 | 19.44° C | 63% | 1011.7 hPa | 0 mm | - | - | - |
| 1778172111 | 20° C | 61% | 1011.8 hPa | 0 mm | - | - | - |
| 1778171811 | 20° C | 58% | 1011.7 hPa | 0 mm | - | - | - |
| 1778171511 | 20.56° C | 57% | 1011.7 hPa | 0 mm | - | - | - |
| 1778171211 | 20.56° C | 56% | 1011.8 hPa | 0 mm | - | - | - |
| 1778170911 | 21.67° C | 55% | 1011.8 hPa | 0 mm | - | - | - |
| 1778170611 | 21.67° C | 55% | 1011.7 hPa | 0 mm | - | - | - |
| 1778170311 | 21.67° C | 55% | 1011.5 hPa | 0 mm | - | - | - |
| 1778170011 | 21.11° C | 55% | 1011.5 hPa | 0 mm | - | - | - |
| 1778169711 | 20.56° C | 56% | 1011.4 hPa | 0 mm | - | - | - |
| 1778169411 | 20.56° C | 55% | 1011.5 hPa | 0 mm | - | - | - |
| 1778169111 | 20.56° C | 55% | 1011.4 hPa | 0 mm | - | - | - |
| 1778168811 | 20.56° C | 55% | 1011.4 hPa | 0 mm | - | - | - |
| 1778168511 | 21.67° C | 54% | 1011.4 hPa | 0 mm | - | - | - |
| 1778168211 | 21.67° C | 52% | 1011.3 hPa | 0 mm | - | - | - |
* Rain latest hour (hover to see other rain measurements)
** Current wind speed in m/s (hover to see current wind gust speed)